{"data":{"norad_id":66265,"intl_designator":"2025-247A","name":"STARLINK-35801","alt_names":[],"object_type":"PAYLOAD","status":"ACTIVE","operator":null,"country":"US","launch_date":"2025-10-31","launch_site_code":"AFWTR","launch_vehicle":null,"mission":null,"orbit_class":"UNKNOWN","rcs_meters":null,"size_class":null,"mass_kg":null,"dimensions":null,"purposes":["comms"],"wikipedia_slug":null,"has_3d_model":false,"image_url":null,"decayed_at":null,"tle_current":{"epoch":"2026-09-20T17:50:46.995936Z","epoch_age_seconds":75643,"freshness":"FRESH","line1":"1 66265U 25247A   26263.74359949  .00026334  00000+0  78663-3 0  9994","line2":"2 66265  53.1605   0.7369 0001124  66.7933 293.3188 15.34446946 50964","mean_motion":15.34446946,"eccentricity":0.0001124,"inclination_deg":53.1605,"raan_deg":0.7369,"arg_perigee_deg":66.7933,"mean_anomaly_deg":293.3188,"bstar":0.00078663,"rev_number":5096,"period_min":93.844886833904,"perigee_km":461.79481559934,"apogee_km":463.33260511903,"semimajor_km":6840.7007103592,"source":"CELESTRAK","updated_at":"2026-09-21T09:00:35.852194Z"}}}